Dewpoint
58 50 52 47 46 43 41 32 23 30 29 24 17 20 15 23 23 19 19 20 18 25 25 26 27 32 25 26 27 31 32 22 23 19 32 52 62 63 65 66 66 67 67 68 68 69 69 69 69 70 70 71 70 70 71 70 70 70 69 69 69 69 69 69 69 69 69 68 68 68 69 69 69 69 69 66 64 65 65 65 65 65 65 65 64 64 63 64 64 65 68 69 69 69 69 68 68
50 49 51 49 42 40 32 29 27 21 21 18 20 19 20 20 21 18 15 18 26 30 33 29 33 42 43 42 40 39 40 48 42 51 52 56 61 63 65 66 66 65 67 68 68 68 69 69 68 69 70 70 70 70 70 70 70 70 70 69 69 69 68 68 69 69 69 68 68 68 69 69 69 68 68 68 64 65 65 65 64 64 64 64 64 64 63 63 65 67 69 69 69 68 68 68 67
46 43 45 44 39 38 32 30 22 18 17 11 16 17 22 18 18 17 18 22 35 39 37 37 38 36 35 35 32 30 39 52 52 53 54 60 59 62 66 66 67 67 67 68 68 69 70 69 68 69 70 70 70 70 70 70 70 70 70 69 69 69 68 68 67 69 69 68 68 68 69 69 69 68 67 67 64 64 64 64 64 64 64 63 63 63 63 65 66 67 67 68 68 68 67 67 66
51 47 42 44 34 33 25 24 25 16 15 15 11 19 20 19 17 19 28 38 39 38 35 32 32 41 35 29 33 42 45 48 53 54 55 59 58 63 66 66 68 67 67 68 68 69 70 69 69 70 70 70 70 70 70 70 70 69 69 69 69 69 69 68 68 69 69 68 68 69 69 69 68 68 68 66 64 64 64 64 63 63 63 63 63 62 63 64 65 65 65 65 66 66 67 67 66
52 45 48 39 41 30 30 30 21 16 8 8 8 18 20 21 18 24 33 39 37 28 29 33 36 44 44 41 39 34 43 50 52 54 56 61 63 64 65 68 67 66 67 67 68 69 70 69 70 71 70 70 71 70 70 70 70 69 69 69 69 68 68 68 68 68 68 68 68 68 69 69 68 68 67 65 64 64 64 64 63 62 63 62 62 63 63 64 66 67 67 67 67 67 67 67 67
48 45 46 42 32 33 26 24 20 13 21 15 7 12 17 18 19 26 32 36 36 32 28 31 29 37 39 45 47 38 48 43 53 55 59 61 63 65 65 68 67 67 66 67 69 69 69 68 70 70 71 70 70 71 70 70 70 70 69 69 69 68 68 68 68 68 68 68 68 68 68 68 68 68 67 65 63 64 64 64 63 63 63 62 63 62 63 65 65 64 64 65 66 67 66 67 67
42 38 40 36 34 37 26 18 16 17 19 20 19 15 17 19 22 27 30 33 30 26 26 26 32 35 32 43 44 49 52 55 53 56 61 63 65 65 65 66 66 66 67 68 69 69 70 67 70 70 71 71 70 70 70 70 70 69 69 69 69 68 68 68 68 68 69 68 68 69 68 68 68 68 66 65 63 63 65 64 63 63 63 63 62 63 64 64 65 65 66 66 67 67 66 66 66
44 42 38 29 30 32 24 22 20 23 20 21 21 20 19 22 24 27 28 28 22 23 27 32 37 28 32 41 35 49 54 55 56 61 61 62 65 66 66 66 66 67 67 68 70 69 69 67 70 71 71 71 70 70 70 70 70 70 69 69 69 68 68 68 68 68 69 68 69 68 69 68 68 67 66 64 63 63 65 64 64 63 63 62 62 62 63 64 64 65 65 66 66 66 66 66 66
37 30 39 37 25 30 22 21 23 21 22 22 21 25 34 23 23 25 26 25 20 21 29 33 32 21 29 35 39 48 50 55 58 61 62 64 65 67 65 66 65 67 68 68 69 70 71 66 68 70 70 71 71 71 70 70 70 70 69 69 69 69 68 69 69 68 68 69 68 68 68 68 67 67 65 63 62 63 64 64 64 63 63 63 62 63 64 64 64 64 64 64 65 66 65 65 64
34 35 25 31 30 24 24 20 20 20 22 21 20 19 23 22 20 20 23 22 20 22 31 31 28 22 33 28 34 44 50 57 56 60 63 64 65 66 66 67 67 67 68 68 69 69 70 69 66 69 70 71 71 71 70 70 70 70 69 69 69 69 69 69 69 69 69 69 68 68 68 68 68 67 65 62 61 62 64 64 64 64 63 63 63 62 62 62 62 62 62 62 63 64 64 64 64
30 30 39 30 24 20 22 18 20 20 19 20 19 20 24 22 18 18 18 19 22 24 32 30 25 24 31 29 35 45 48 50 59 60 63 64 66 66 67 66 67 68 67 70 69 69 69 69 68 67 68 69 70 70 70 70 70 70 70 69 69 69 69 69 69 69 69 69 68 68 68 68 67 67 65 62 60 61 64 64 64 64 63 63 63 63 63 62 62 62 62 63 63 63 63 63 63
26 28 34 25 21 22 17 16 20 20 18 19 17 20 21 20 19 16 16 17 20 24 28 30 23 30 29 29 33 43 48 52 60 61 63 65 65 67 67 66 67 67 68 68 69 69 70 69 70 68 65 67 68 69 70 70 70 70 70 70 70 70 69 69 69 69 69 68 68 68 68 68 67 66 63 61 61 62 63 63 63 63 63 63 61 60 60 61 62 62 62 62 62 63 62 62 62
35 37 22 19 24 20 26 19 20 26 21 15 16 18 21 19 17 17 16 19 21 23 25 29 35 33 20 25 35 41 49 53 60 62 64 65 66 67 66 67 67 68 67 69 69 70 70 69 70 69 67 63 65 67 68 68 69 70 70 70 70 70 70 70 69 69 69 69 68 68 68 68 67 65 64 61 61 61 62 62 63 62 62 60 58 58 58 59 60 60 61 61 62 62 62 62 61
34 38 28 26 26 24 21 22 22 17 12 16 18 20 19 17 17 16 17 17 20 20 24 27 31 29 26 27 30 35 45 56 61 62 64 65 66 68 67 68 69 69 68 69 68 69 70 69 69 69 69 69 69 67 65 67 68 69 69 69 69 69 70 70 70 69 69 69 69 68 67 67 67 65 64 62 61 60 60 60 61 61 61 59 57 57 57 57 57 59 60 61 61 61 61 61 61
37 36 31 31 24 23 24 17 17 16 13 15 18 19 18 21 20 17 16 15 18 22 27 27 35 26 17 19 21 32 46 60 61 63 63 65 65 67 68 68 67 68 68 68 68 69 68 69 69 69 69 69 69 69 70 70 66 67 68 68 68 69 69 69 69 68 68 68 67 66 66 66 65 65 65 64 63 62 60 60 59 61 61 60 59 58 58 59 58 58 60 60 61 61 60 60 59
38 35 31 27 21 23 24 23 23 21 15 15 20 21 18 20 21 18 18 20 23 30 28 24 29 22 24 22 26 36 54 61 61 62 63 64 64 65 66 66 66 66 67 67 67 68 68 68 69 69 70 69 69 68 69 69 65 64 66 67 67 68 68 68 67 66 66 64 64 64 64 64 62 63 61 62 62 61 60 58 60 60 61 61 60 60 59 58 58 59 59 60 60 59 59 58 58
36 37 23 23 20 22 25 20 21 15 20 20 20 19 16 18 21 22 24 22 21 24 26 26 27 29 25 25 29 34 56 60 61 62 63 62 63 64 64 65 65 64 64 65 66 66 67 68 68 69 69 69 69 68 70 70 69 63 64 64 65 66 66 66 66 62 61 61 62 62 63 65 63 62 62 61 60 61 58 58 59 58 58 59 58 57 57 56 56 57 58 58 57 56 55 55 55
37 24 23 22 23 20 25 20 20 23 16 18 19 19 17 17 20 22 24 22 23 24 25 25 27 28 29 30 37 36 57 60 61 62 62 62 63 63 64 64 64 64 63 63 62 64 65 67 67 67 68 69 69 69 69 70 69 66 70 69 69 66 63 62 66 68 65 67 61 65 66 65 63 63 62 62 59 59 59 57 57 58 57 58 56 56 56 56 56 56 55 55 54 52 52 50 50
28 27 23 16 23 21 21 21 19 16 18 16 19 20 19 17 19 22 19 20 21 20 22 23 23 26 30 33 39 36 58 60 60 61 61 62 62 63 63 63 64 64 63 63 62 61 63 64 66 66 66 67 68 68 69 69 69 69 69 69 69 65 66 67 68 67 68 67 67 66 65 65 64 62 62 63 61 59 61 57 58 58 58 58 57 56 56 56 56 55 54 52 51 50 48 48 48
26 29 17 17 31 21 23 20 19 20 19 18 19 20 20 20 20 22 18 19 21 18 17 22 22 22 27 40 43 46 58 59 60 61 59 60 62 61 62 62 63 63 63 63 63 59 60 62 64 66 65 65 67 67 68 68 69 69 68 69 68 68 68 68 68 68 67 67 67 66 65 66 64 63 61 60 60 60 59 57 57 57 57 57 56 55 56 55 54 53 51 50 48 48 45 44 45
26 20 15 22 22 21 22 22 20 20 20 19 19 20 19 21 21 21 19 17 17 17 18 17 18 20 26 40 44 52 56 59 59 61 59 58 60 61 61 60 62 62 62 63 62 60 59 60 62 63 63 64 66 67 67 67 67 68 70 68 68 68 68 67 67 67 67 67 67 66 66 66 65 64 62 60 60 60 58 56 54 53 53 53 52 50 48 48 47 48 47 47 46 47 45 44 43
25 20 23 23 23 23 23 23 24 22 22 20 20 19 19 22 22 21 20 15 13 15 18 21 19 22 28 39 46 52 54 56 58 60 59 58 58 58 60 60 61 60 60 61 62 59 58 58 59 61 63 62 64 65 66 67 68 67 68 68 68 68 67 68 67 67 66 67 67 66 66 66 65 63 64 63 61 60 60 57 55 51 50 51 49 47 47 48 48 48 48 46 44 43 43 42 40
10 22 21 24 23 22 24 24 25 22 21 19 19 20 21 20 20 22 21 18 19 22 25 24 23 24 27 38 48 51 53 54 57 57 59 59 58 58 59 59 59 59 59 61 61 61 57 57 58 59 61 62 62 63 64 65 67 67 68 69 67 68 68 67 67 67 66 66 66 66 66 66 66 64 63 63 62 60 59 57 53 48 49 48 48 48 49 48 47 46 45 45 43 42 41 40 39
22 18 22 23 24 23 24 24 25 22 20 19 21 22 20 20 18 22 21 21 21 22 25 28 29 27 28 41 47 49 52 54 55 56 57 58 59 58 58 59 59 61 59 60 59 58 56 56 57 58 61 62 62 61 61 63 64 66 67 67 67 66 67 67 67 67 67 66 66 66 65 66 66 64 63 63 63 61 60 58 54 49 49 49 49 50 49 47 46 45 45 45 42 41 39 37 35
20 20 23 23 24 24 25 24 22 22 21 22 22 20 20 21 21 22 20 20 22 22 27 29 29 29 28 32 45 48 52 53 54 56 57 57 58 59 60 58 58 58 59 60 58 57 57 56 55 57 59 60 61 61 61 61 64 64 66 66 67 65 67 67 68 67 66 66 66 66 66 65 66 65 64 63 62 61 61 58 56 51 51 52 51 49 49 47 46 44 44 42 40 39 37 36 33
23 23 23 23 23 24 23 23 23 23 23 22 21 20 22 22 23 21 20 21 25 29 26 28 29 27 28 29 35 45 50 52 54 55 54 55 54 56 58 59 58 57 58 59 58 57 57 54 54 56 58 60 60 61 61 61 63 64 64 65 65 67 67 66 67 67 67 66 66 66 66 65 65 65 65 64 62 62 62 60 57 54 53 52 51 50 47 45 44 44 43 42 40 37 34 33 30
24 23 23 23 24 24 25 22 23 24 25 23 20 20 21 22 22 15 22 26 27 27 27 29 27 26 27 28 30 36 44 49 52 53 53 53 52 52 53 55 57 57 58 59 58 57 55 53 54 55 57 59 60 60 61 60 61 62 63 64 65 66 67 67 67 66 67 67 66 66 66 65 65 65 64 65 64 62 62 60 59 55 54 52 52 51 48 46 45 43 42 39 37 34 31 31 27
24 23 24 23 24 24 24 24 24 24 22 23 22 21 22 21 23 18 22 27 28 26 25 27 28 28 26 28 29 32 33 38 45 49 50 50 51 50 51 52 54 56 57 58 59 58 56 55 55 55 56 57 58 58 60 60 60 61 62 62 63 65 66 66 67 66 65 66 66 66 66 65 64 64 65 64 63 62 62 61 61 58 55 53 52 51 48 46 45 44 43 41 38 34 30 28 26
24 25 20 23 23 23 24 23 23 25 22 23 22 21 21 21 20 22 24 26 27 26 26 26 27 28 31 31 30 31 32 33 35 40 45 49 50 49 49 50 51 53 54 57 57 56 56 55 55 54 54 55 56 57 57 59 59 60 62 62 63 65 65 66 66 66 66 65 65 66 66 65 64 64 64 63 65 64 62 62 61 59 56 53 53 51 49 47 44 42 41 39 35 34 31 29 29
25 24 23 21 21 20 24 25 23 23 23 24 23 18 17 20 21 23 24 25 25 24 25 24 26 27 28 30 30 31 31 34 34 36 37 42 47 48 48 48 49 51 52 53 54 54 54 54 53 54 53 53 55 54 56 57 58 59 61 62 62 65 65 65 65 66 65 65 64 65 66 65 64 64 64 65 65 63 63 62 61 60 60 57 54 51 48 44 43 41 39 35 34 29 27 25 21
22 23 24 25 21 19 24 25 24 22 23 23 22 21 16 20 20 24 27 27 24 22 22 23 25 25 27 32 32 31 31 33 33 33 37 39 40 44 48 47 47 49 50 51 52 53 52 53 52 51 53 53 53 53 54 56 58 59 59 62 62 63 63 64 64 64 64 64 64 64 65 65 65 64 64 64 64 64 62 62 61 58 58 57 54 51 47 44 42 40 36 34 31 27 25 24 23
22 20 21 27 21 21 22 26 24 21 22 23 22 23 19 19 20 24 27 27 26 24 23 23 24 25 26 28 27 28 29 31 33 33 34 36 38 39 44 46 47 47 48 50 51 52 51 51 52 51 51 51 52 52 54 54 56 58 58 59 61 62 62 63 63 63 63 63 63 63 64 64 64 64 64 63 62 62 62 61 60 58 57 56 53 53 48 44 41 41 38 33 27 25 23 24 24
24 22 30 24 25 22 19 24 24 24 22 23 22 18 19 16 21 25 27 26 25 24 24 25 25 25 26 25 27 27 29 30 33 32 33 34 37 38 40 42 46 47 48 49 50 51 51 50 51 51 51 51 51 52 54 54 54 57 58 60 60 61 61 62 62 62 62 62 63 63 63 63 64 64 63 63 61 60 59 58 59 58 56 55 54 50 47 44 42 41 36 31 29 25 25 26 25
23 26 22 29 21 20 15 24 24 27 22 21 22 21 20 19 21 23 24 25 25 23 23 23 25 25 26 28 28 26 27 29 29 31 32 33 35 36 38 42 44 46 48 49 50 50 50 50 51 51 51 50 52 53 54 55 55 57 58 59 58 59 60 61 60 60 60 61 61 62 61 61 62 62 62 62 61 59 58 57 57 58 56 54 52 49 47 45 42 39 35 33 28 26 24 24 23
21 23 23 21 22 23 21 20 24 23 21 21 21 21 21 21 22 22 22 25 23 23 23 23 23 24 25 26 27 26 28 29 28 31 32 32 34 37 37 41 44 46 47 48 49 50 50 51 50 51 51 51 53 54 54 55 55 56 57 56 57 58 58 58 58 58 59 59 60 60 61 60 60 60 60 60 60 58 57 57 57 57 57 55 53 49 47 45 43 38 34 30 28 26 24 25 23
18 22 19 23 19 21 19 22 25 24 22 21 21 21 20 21 22 22 23 24 24 23 24 24 24 24 24 25 27 28 30 28 29 34 36 33 35 36 37 40 44 46 46 47 48 50 50 50 50 50 50 51 52 53 54 54 54 55 55 53 54 54 55 56 56 57 56 58 59 59 59 60 59 59 59 59 58 58 57 56 55 56 55 53 51 48 45 43 41 37 32 30 31 30 27 26 25
26 29 27 20 21 19 23 24 26 26 23 23 23 23 22 23 23 23 24 24 25 25 24 25 26 27 28 28 27 30 30 29 41 38 38 36 38 37 38 41 43 45 46 47 47 49 50 49 50 50 50 52 51 53 54 53 53 54 54 53 54 54 53 54 54 54 55 56 56 57 58 57 59 59 58 57 56 55 56 55 54 54 54 52 50 49 46 44 40 35 31 30 29 27 26 25 25
21 24 25 22 28 19 24 25 26 26 24 23 24 23 24 24 24 24 24 24 24 24 25 25 25 25 27 30 31 33 31 36 38 35 34 37 36 40 40 41 42 43 44 46 47 48 49 49 49 50 51 51 51 52 53 53 54 54 54 54 53 52 51 52 53 51 52 52 53 54 55 55 57 57 56 56 54 55 54 53 53 53 52 51 50 48 47 43 38 34 31 27 28 25 23 26 23
28 23 26 26 24 28 26 24 27 27 24 21 25 24 23 23 24 24 25 25 25 26 26 26 26 28 29 29 31 31 33 33 33 32 34 33 40 40 40 41 42 42 44 46 47 48 49 49 49 49 50 51 52 51 53 53 54 54 54 53 50 49 47 47 51 49 48 50 50 51 52 53 54 54 54 54 53 53 53 53 52 51 52 51 49 46 44 39 34 32 31 27 25 24 22 27 24
26 27 24 20 29 20 13 26 27 25 24 24 27 26 25 25 25 26 27 26 27 28 29 30 31 30 29 28 29 32 32 34 34 33 31 31 37 38 39 40 41 42 44 46 47 48 48 48 48 49 50 50 51 51 52 53 54 53 49 49 47 48 47 44 44 43 45 47 48 47 48 51 52 52 52 51 51 51 50 52 52 51 51 51 49 46 42 38 35 32 31 28 26 24 23 26 33
32 31 27 24 27 24 20 17 26 27 28 30 27 26 24 23 22 21 25 28 29 29 30 30 32 35 34 37 37 36 31 31 33 33 34 32 33 35 37 40 41 42 44 45 47 48 47 48 48 49 49 50 50 50 52 50 48 47 44 43 43 44 44 45 44 44 45 45 46 45 47 48 50 49 49 49 49 49 49 48 49 49 49 49 47 45 41 37 35 31 31 29 27 24 24 25 30
27 32 28 23 23 22 23 26 24 23 24 30 28 15 17 23 25 24 22 24 25 28 29 28 30 32 35 32 33 35 38 37 34 33 34 35 33 35 37 40 41 42 42 44 47 48 47 48 48 49 49 49 50 51 52 48 48 48 45 45 46 47 45 44 46 46 44 44 45 45 43 45 47 48 48 48 47 47 48 48 48 48 48 48 47 44 41 37 35 35 32 30 29 29 27 27 29
25 19 30 26 24 27 27 27 26 20 19 28 29 16 14 19 20 19 20 22 20 23 28 26 27 28 29 32 34 34 35 36 37 35 35 34 35 36 37 39 40 40 41 44 46 47 48 48 48 49 49 49 50 50 48 47 48 47 47 48 49 49 48 47 48 49 46 46 45 42 42 43 45 46 45 46 45 45 46 46 47 48 48 47 47 45 40 37 37 36 33 32 32 32 32 30 32
18 34 30 27 26 28 30 28 28 24 31 34 29 27 22 20 18 27 27 26 25 26 27 29 29 30 30 29 31 34 35 35 37 38 36 35 34 35 34 37 38 39 41 44 46 47 47 47 48 49 49 49 49 49 48 48 48 47 48 50 50 50 51 50 48 48 47 44 41 40 40 40 42 43 43 42 42 43 44 44 45 47 48 48 48 45 43 39 38 39 36 36 36 34 34 33 33
25 33 32 30 25 31 31 30 28 30 26 22 27 34 20 22 22 28 26 21 22 22 21 22 23 27 24 29 30 34 35 36 36 38 38 37 36 35 34 36 38 39 41 43 44 46 48 48 48 48 48 48 48 48 48 47 47 48 49 50 52 52 51 49 48 45 43 40 41 40 40 39 39 41 40 40 40 40 40 42 43 45 46 47 47 46 44 40 37 36 36 38 37 34 35 36 33
32 32 33 33 34 33 33 29 29 29 23 22 25 28 18 13 22 18 27 22 17 16 15 17 22 24 31 32 35 36 34 37 38 36 36 37 37 36 36 35 37 39 41 44 44 46 47 48 47 48 48 48 48 47 47 48 48 48 50 51 51 50 48 43 44 42 42 41 41 38 37 37 37 37 37 38 38 37 38 40 41 41 43 45 44 46 43 39 38 37 37 38 37 37 35 36 34
34 35 33 33 33 32 31 32 29 27 18 20 27 26 20 15 21 11 22 22 18 14 17 19 24 29 30 33 35 39 34 36 38 39 38 37 36 34 35 34 35 38 42 43 45 46 47 48 48 47 47 48 48 47 47 48 48 48 49 49 50 48 45 44 40 40 39 39 39 40 36 38 37 36 35 35 35 34 35 36 39 39 39 40 42 44 42 40 38 37 38 39 38 38 36 36 34
36 33 32 30 27 28 29 28 27 19 14 25 27 28 25 13 18 22 21 22 23 21 18 15 18 21 34 36 32 33 33 34 36 36 38 38 36 36 36 35 36 38 41 42 44 46 46 47 47 47 47 47 47 47 46 47 48 49 49 49 48 47 46 44 41 40 38 38 39 38 37 37 35 34 34 32 31 30 31 32 35 38 38 37 39 39 40 39 38 37 37 37 37 39 36 35 34
33 31 28 18 15 16 16 25 17 18 13 26 24 27 23 23 16 21 21 22 22 24 24 23 23 23 30 33 35 35 38 37 37 38 39 40 39 38 38 36 38 39 40 41 44 45 45 46 46 46 47 47 47 46 46 46 47 48 48 49 49 48 45 43 44 42 39 39 39 37 36 36 34 34 33 33 31 30 28 29 31 35 36 35 37 38 38 38 37 36 36 37 36 36 34 34 31
31 26 23 17 10 15 13 17 17 14 19 21 21 26 22 21 21 20 19 20 23 24 25 29 27 28 30 33 36 33 38 37 38 38 38 40 40 39 38 38 38 40 40 42 43 44 45 46 46 46 46 46 45 46 46 46 46 46 47 48 49 48 43 43 45 44 39 39 40 38 36 36 36 35 33 33 31 29 28 28 29 31 32 33 35 37 37 37 37 35 35 35 36 34 32 34 32
29 35 26 20 15 18 14 12 7 11 21 21 21 24 24 22 11 22 21 23 26 26 27 30 33 32 34 35 36 34 34 34 38 38 39 39 39 38 39 38 39 40 40 42 43 44 45 45 45 45 45 45 45 45 46 45 46 46 46 47 48 45 43 42 43 43 39 39 39 40 37 36 36 35 34 33 31 29 29 29 28 29 31 32 33 35 37 35 35 33 34 35 32 29 31 30 30
34 36 31 24 20 18 4 18 15 17 18 21 23 21 22 21 23 25 25 27 27 28 29 30 29 30 33 33 33 33 33 33 37 37 38 37 37 37 37 38 39 40 40 42 43 44 45 45 45 45 45 45 45 45 45 44 45 46 46 46 46 42 41 41 41 40 40 40 41 42 41 38 36 36 34 32 31 28 28 29 27 28 29 30 31 32 32 32 33 31 30 30 29 31 29 30 27
29 29 27 25 28 22 22 22 20 19 17 15 25 20 20 21 17 19 20 18 20 23 25 26 27 30 32 33 35 34 35 37 38 38 38 38 37 37 37 37 38 39 40 41 43 44 44 45 45 45 45 45 45 45 44 43 44 45 45 45 45 42 41 41 40 40 39 40 41 41 42 40 40 38 36 33 29 27 27 27 25 26 27 28 29 30 30 30 31 29 27 29 27 25 26 27 23
30 26 28 33 32 32 20 12 22 18 13 16 20 15 8 9 9 20 22 21 19 20 21 22 25 32 31 34 36 37 40 39 37 37 37 37 37 37 37 38 38 39 39 41 42 44 45 45 45 45 45 44 44 44 43 44 44 45 44 44 43 41 41 40 40 39 38 37 38 38 37 38 38 38 35 33 28 26 26 25 24 24 25 27 28 27 28 28 28 26 27 26 24 24 24 21 22
29 30 37 23 21 19 22 18 15 16 17 18 17 16 15 17 12 14 14 21 20 21 23 23 22 25 29 32 34 36 37 37 38 37 38 39 38 37 37 37 38 38 39 40 42 43 45 45 45 45 45 45 45 44 43 43 42 44 45 43 43 41 39 39 40 38 36 35 35 35 36 36 36 34 31 29 26 23 23 23 23 22 22 24 25 25 25 25 24 23 23 21 22 22 19 18 19
35 33 29 34 25 20 22 18 23 15 12 16 20 14 11 26 18 18 13 13 20 16 22 22 23 24 26 28 33 35 36 37 40 40 41 40 39 37 37 37 37 38 39 40 41 43 43 44 45 45 45 45 45 44 42 42 43 43 44 43 43 41 38 38 37 37 35 34 34 33 33 33 33 31 30 28 24 21 20 19 19 18 20 21 21 20 20 21 21 20 15 15 15 16 14 12 13
28 28 26 28 29 29 27 25 20 13 13 13 11 10 13 12 18 17 13 13 15 17 21 30 29 28 30 31 35 39 40 41 41 42 42 40 38 36 36 37 38 39 39 40 40 41 42 43 44 44 44 45 44 43 42 42 42 43 43 43 41 39 37 39 37 35 33 33 33 33 31 32 30 29 29 28 23 20 18 17 16 17 16 15 17 15 14 14 14 13 11 12 12 12 11 11 11
28 26 26 25 26 24 21 20 24 23 16 17 13 13 16 13 24 20 15 17 18 25 26 30 32 29 32 37 37 39 41 40 41 40 41 40 36 36 36 37 38 38 38 38 39 40 41 42 43 44 44 44 44 43 43 43 42 42 41 40 40 38 36 35 35 33 30 31 30 29 29 28 28 27 25 27 24 20 17 16 16 16 14 14 14 14 12 11 10 10 10 18 13 11 11 12 12